STARLINK-5240 (54187 NORAD) Tracking and Keplerian Element Data

This shows tracking and keplerian element data for the satellite.

Feedback or suggestion? Click here.




ElementValue
Catalog54187
NameSTARLINK-5240
Epoch Orbit407
Epoch Day325.25001157
Epoch Year2022
RAAN24.1045
Inclination53.2191
Eccentricity0.0002975
Argument of Perigee20.1277
Mean Anonmoly4.9073
Mean Motion15.73180664
Decay Rate0.00029939
L11 54187U 22141AG 22325.25001157 .00029939 00000+0 21713-3 0 9998
L22 54187 53.2191 24.1045 0002975 20.1277 4.9073 15.73180664 4071



Live tracking and technical data element details for STARLINK-5240 (NORAD 54187). STARLINK-5240 can be tracked NOW for your location showing map with azimuth and elevation plus other details from your city location.







IsCatalogInMostPopularTable: catalog: 54187, numindb: 5
Update: records affected: 1



GetName: 54187 STARLINK-5240

Hit Count: updated at: Mon, 28 Nov 2022 21:57:11 GMT